#timestamp,LO_Frequency,Hit 
1501401615.2,286046913.0,N
1501401635.0,286046913.0,N
1501401636.0,286046913.0,N
1501401655.8,286046908.7,Y
1501401675.6,286046963.1,N
1501401695.5,286046965.0,N
1501401715.3,286046964.9,N
1501401735.1,286046965.4,N
1501401755.8,286046965.9,N
1501401775.7,286046965.5,N
1501401795.5,286046963.0,N
1501401815.3,286046963.1,N
1501401835.2,286046965.5,N
1501401855.9,286046963.8,N
1501401875.7,286046964.2,N
1501401895.6,286046962.0,N
1501401915.4,286046964.3,N
1501401935.2,286046963.1,N
1501401955.1,286046965.9,N
1501401956.0,286046965.9,N
1501401975.8,286046963.5,N
1501401995.6,286046961.3,N
1501402015.4,286046960.0,N
1501402035.3,286046962.3,N
1501402055.1,286046962.8,N
1501402075.8,286046962.6,N
1501402095.7,286046962.6,N
1501402115.5,286046959.9,N
1501402135.3,286046961.1,N
1501402155.2,286046962.7,N
1501402175.9,286046962.8,N
1501402195.7,286046959.9,N
1501402215.6,286046959.7,N
1501402235.4,286046960.7,N
1501402255.2,286046960.7,N
1501402275.0,286046960.2,N
1501402275.9,286046960.2,N
1501402295.8,286046958.6,N
1501402315.6,286046959.9,N
1501402335.4,286046959.7,N
1501402355.3,286046960.1,N
1501402375.1,286046962.3,N
1501402395.8,286046960.6,N
1501402415.7,286046960.3,N
1501402435.5,286046960.1,N
1501402455.3,286046960.4,N
1501402475.2,286046960.3,N
1501402495.9,286046960.0,N
1501402515.7,286046958.1,N
1501402535.5,286046960.2,N
1501402555.4,286046960.1,N
1501402575.2,286046959.8,N
1501402595.0,286046958.1,N
1501402595.9,286046958.1,N
1501402615.8,286046960.3,N
1501402635.6,286046959.0,N
1501402655.4,286046958.9,N
1501402675.3,286046961.2,N
1501402695.1,286046958.1,N
1501402696.0,286046958.1,N
1501402715.8,286046958.3,N
1501402735.7,286046960.9,N
1501402755.5,286046959.3,N
1501402775.3,286046958.4,N
1501402795.2,286046958.8,N
1501402815.9,286046959.2,N
1501402835.7,286046956.5,N
1501402855.5,286046958.4,N
1501402875.4,286046956.8,N
1501402895.2,286046958.7,N
1501402915.0,286046959.1,N
1501402915.9,286046959.1,N
1501402935.8,286046959.6,N
1501402955.6,286046956.8,N
1501402975.4,286046959.3,N
1501402995.3,286046957.7,N
1501403015.1,286046956.7,N
1501403016.0,286046956.7,N
1501403035.8,286046957.3,N
1501403055.7,286046959.6,N
1501403075.5,286046957.8,N
1501403095.3,286046956.9,N
1501403115.1,286046956.6,N
1501403135.9,286046959.6,N
1501403155.7,286046957.1,N
1501403175.5,286046957.2,N
1501403195.4,286046957.0,N
1501403215.2,286046957.7,N
1501403235.0,286046957.3,N
1501403235.9,286046957.3,N
1501403255.8,286046957.5,N
1501403275.6,286046957.8,N
1501403295.4,286046958.0,N
1501403315.3,286046959.4,N
1501403335.1,286046957.2,N
1501403336.0,286046957.2,N
1501403355.8,286046956.9,N
1501403375.7,286046957.9,N
1501403395.5,286046957.4,N
1501403415.3,286046957.1,N
1501403435.1,286046955.4,N
1501403455.9,286046954.9,N
1501403475.7,286046957.2,N
1501403495.5,286046956.9,N
1501403515.4,286046955.1,N
1501403535.2,286046958.0,N
1501403555.0,286046956.3,N
1501403555.9,286046956.3,N
1501403575.8,286046953.3,N
1501403595.6,286046955.5,N
1501403615.4,286046955.0,N
1501403635.3,286046955.8,N
1501403655.1,286046954.2,N
1501403656.0,286046954.2,N
1501403675.8,286046956.4,N
1501403695.7,286046953.6,N
1501403715.5,286046954.8,N
1501403735.3,286046953.8,N
1501403755.1,286046954.4,N
1501403775.9,286046956.4,N
1501403795.7,286046956.0,N
1501403815.5,286046954.0,N
1501403835.4,286046955.9,N
1501403855.2,286046954.1,N
1501403875.0,286046954.0,N
1501403875.9,286046954.0,N
1501403895.8,286046952.1,N
1501403915.6,286046952.3,N
1501403935.4,286046952.2,N
1501403955.3,286046950.3,N
1501403975.1,286046952.4,N
1501403976.0,286046952.4,N
1501403995.8,286046952.3,N
1501404015.6,286046952.7,N
1501404035.5,286046952.1,N
1501404055.3,286046952.5,N
1501404075.1,286046952.9,N
1501404095.9,286046952.5,N
1501404115.7,286046950.6,N
1501404135.5,286046953.2,N
1501404155.4,286046954.7,N
1501404175.2,286046952.7,N
1501404195.0,286046950.1,N
1501404195.9,286046950.1,N
1501404215.8,286046952.3,N
1501404235.6,286046952.1,N
1501404255.4,286046953.7,N
1501404275.2,286046952.3,N
1501404295.1,286046954.2,N
1501404296.0,286046954.2,N
1501404315.8,286046952.4,N
1501404335.6,286046954.5,N
1501404355.5,286046952.7,N
1501404375.3,286046952.2,N
1501404395.1,286046952.7,N
1501404415.9,286046952.8,N
1501404435.7,286046951.1,N
1501404455.5,286046951.4,N
1501404475.4,286046951.5,N
1501404495.2,286046950.1,N
1501404515.0,286046950.3,N
1501404515.9,286046950.3,N
1501404535.8,286046950.4,Y
1501404555.6,286047013.8,N
1501404575.4,286047015.3,N
1501404595.3,286047012.6,N
1501404615.1,286047012.9,N
1501404616.0,286047012.9,N
1501404635.8,286047013.3,N
1501404655.6,286047011.0,N
1501404675.5,286047013.6,N
1501404695.3,286047014.0,N
1501404715.1,286047013.0,N
1501404735.9,286047013.4,N
1501404755.7,286047013.1,N
1501404775.5,286047013.6,N
1501404795.4,286047013.7,N
1501404815.2,286047011.2,N
1501404835.0,286047010.9,N
1501404835.9,286047010.9,N
1501404855.8,286047009.3,N
1501404875.6,286047011.5,N
1501404895.4,286047012.1,N
1501404915.2,286047013.3,N
1501404935.1,286047011.5,N
1501404936.0,286047011.5,N
1501404955.8,286047013.6,N
1501404975.6,286047013.1,N
1501404995.5,286047014.0,N
1501405015.3,286047011.1,N
1501405035.1,286047011.0,N
1501405055.9,286047013.4,N
1501405075.7,286047011.7,N
1501405095.5,286047011.3,N
1501405115.4,286047011.4,N
1501405135.2,286047011.2,N
1501405155.0,286047011.1,N
1501405155.9,286047011.1,N
1501405175.8,286047013.0,N
1501405195.6,286047010.9,N
